Location: Unspecified
(0.0000°N, 0.0000°E)
Time: 19:04:18
(UTC+00:00)

FO-29 - Visible Passes

Search period start: 16 January 2018 00:00
Search period end: 26 January 2018 00:00
Orbit: 800 x 1322 km, 98.5° (Epoch: 15 January)

Date Brightness Start Highest point End Pass type
(mag) Time Alt. Az. Time Alt. Az. Time Alt. Az.
16 Jan 9.1 19:50:06 50° NE 19:51:26 72° ESE 19:57:07 10° S visible
17 Jan 10.8 18:54:10 13° ENE 18:56:39 17° ESE 19:00:11 10° SE visible
17 Jan 10.7 20:40:38 29° WNW 20:41:25 30° W 20:46:17 10° SW visible
18 Jan 9.2 19:44:42 43° NE 19:46:23 64° ESE 19:52:09 10° S visible
19 Jan 10.9 18:48:46 11° ENE 18:51:39 15° ESE 18:54:55 10° SE visible
19 Jan 10.6 20:35:14 31° NW 20:36:22 34° W 20:41:31 10° SW visible
20 Jan 9.3 19:39:18 36° NE 19:41:22 58° ESE 19:47:10 10° S visible
21 Jan 11.0 18:43:51 10° ENE 18:46:40 14° ESE 18:49:36 10° SE visible
21 Jan 10.5 20:29:50 32° NW 20:31:19 38° W 20:36:43 10° SW visible
22 Jan 9.4 19:33:53 31° NE 19:36:20 53° ESE 19:42:12 10° S visible
23 Jan 11.0 18:39:13 10° E 18:41:40 13° ESE 18:44:14 10° SE visible
23 Jan 10.3 20:24:24 32° NW 20:26:17 43° W 20:31:57 10° SSW visible
24 Jan 9.6 19:28:27 26° NE 19:31:20 48° ESE 19:37:12 10° S visible
24 Jan 12.0 21:14:56 10° WNW 21:16:22 11° W 21:17:51 10° W visible
25 Jan 11.1 18:34:43 10° E 18:36:42 12° ESE 18:38:46 10° SE visible
25 Jan 10.1 20:18:58 31° NNW 20:21:15 48° W 20:27:09 10° SSW visible
